User: anonymous   Login
Location: Mascot Post Office (historical)
(40.2645°N, 99.5462°W)
Time: 13:43:57
(UTC+00:00)
Language:

Meteor 1-5 Rocket - Orbit

View from above orbital plane
View from above orbital plane
View from above satellite
View from above satellite

Ground track
Ground track

The orbit data is extracted from the following two-line orbital elements,

1  4420U 70047B   20274.93774307 +.00000206 +00000-0 +10151-3 0  9992
2  4420 081.2293 237.5966 0088614 071.7261 289.3527 14.12083608587689
Epoch (UTC): 30 September 2020 22:30:21
Eccentricity: 0.0088614
inclination: 81.2293°
perigee height: 788 km
apogee height: 916 km
right ascension of ascending node: 237.5966°
argument of perigee: 71.7261°
revolutions per day: 14.12083608
mean anomaly at epoch: 289.3527°
orbit number at epoch: 58768

The dashed part of the orbit path shows where the satellite is in the earth's shadow,  

DLR